Погода в Сержень-Юрте

Россия / Чеченская Республика     43°06′42″N   45°59′24″E
темп.,
°C
ветер,
м/с
пор.,
м/с
влажн.,
%
обл.,
%
осадки,
мм/ч
давл.,
гПа
погр.,
м
26 октября, вт
вт2600:00+1з1399100 2.1 1032319
03:00+1сз1299100 3.9 1033308
06:00+1зюз119596 0.6 1034239
09:00+3с217777 0.6 1033613
12:00+4с217593 0.1 1032877
15:00+3с117774 0.1 1031478
18:00+2вюв018487 0.0 103390
21:00+1ююв218411 0.0 103331
27 октября, ср
ср2700:000ююв22834 0.0 103316
03:00−1ююв22781 0.0 103214
06:00−1ююв22730 0.0 103213
09:00+5ссв11550 0.0 1029230
12:00+8ссв22520 0.0 1026539
15:00+9с11540 0.0 1025483
18:00+4ю21730 0.0 102613
21:00+3ю22700 0.0 102514
28 октября, чт
чт2800:00+3ю22680 0.0 102314
03:00+3ююз22680 0.0 102412
06:00+3ю22610 0.0 102415
09:00+10з11490 0.0 1024170
12:00+12сз23400 0.0 1023632
15:00+11зсз23440 0.0 1023683
18:00+5ю22682 0.0 102617
21:00+4ю226694 0.0 102619
29 октября, пт
пт2900:00+4ююз2267100 0.0 102619
03:00+4ю2269100 0.0 102619
06:00+4ююз2170100 0.0 102611
09:00+7зсз1159100 0.0 1027249
12:00+10ссз225060 0.0 1025699
15:00+10ссз22525 0.0 1025769
18:00+6ю227236 0.0 102817
21:00+5ю22704 0.0 102920
30 октября, сб
сб3000:00+5ю22741 0.0 103025
03:00+4ю22704 0.0 103014
06:00+5ююз227151 0.0 103222
09:00+8сз116222 0.0 1033350
12:00+10ссз22562 0.0 1032878
15:00+10с226212 0.0 1032848
18:00+5ююв119158 0.0 103615
21:00+5ююв11820 0.0 103614